Location: B�n�jacq
(43.2000°N, 0.2167°W)
Time: 20:22:18
(UTC+00:00)

Daily predictions for brighter satellites

Satellite Brightness Start Highest point End
(mag) Time Altitude Azimuth Time Altitude Azimuth Time Altitude Azimuth
Cosmos 1814 Rocket 4.0 19:33:16 10° NNW 19:38:32 86° ENE 19:43:41 10° SSE
Meteor 2-15 4.5 19:34:11 10° S 19:40:14 83° E 19:46:20 10° N
SL-4 R/B 2.5 19:36:10 10° NW 19:40:28 62° NNE 19:45:03 10° ESE
X-37B 1.0 19:40:09 10° W 19:43:19 63° N 19:46:30 10° ENE
Cosmos 540 Rocket 4.4 19:41:14 10° NNW 19:46:09 48° WSW 19:51:02 10° S
IRS-1A Rocket 4.5 19:44:53 10° SSE 19:50:31 62° ENE 19:56:18 10° N
SPOT 3 Rocket 4.5 19:49:26 10° SE 19:53:57 32° ENE 19:58:29 10° N
CZ-4 R/B 4.3 19:52:33 10° SW 19:54:52 15° W 19:57:10 10° WNW
ERS-2 2.9 19:52:04 10° N 19:55:38 55° WNW 19:59:10 10° SSW
Cosmos 1844 4.1 19:50:18 10° S 19:55:39 42° ESE 20:00:59 10° NE
Resurs 1-3 3.8 19:51:44 10° SSE 19:55:59 53° ENE 20:00:16 10° N
Cosmos 968 Rocket 3.6 19:51:22 10° S 19:56:30 59° ESE 20:01:39 10° NNE
Cosmos 1743 Rocket 3.5 19:53:17 10° N 19:57:37 68° E 20:01:57 10° SSE
BREEZE-M DEB (TANK) 4.0 19:53:24 10° WNW 19:57:43 74° N 20:04:53 10° E
ATLAS 5 CENTAUR R/B 3.4 19:55:02 10° NNW 19:59:57 32° NE 20:05:37 10° ESE
BREEZE M DEB (TANK) 4.1 19:59:37 10° WSW 20:03:02 67° NNW 20:13:23 10° ENE
Cosmos 1486 Rocket 4.1 19:58:52 10° S 20:04:02 55° ESE 20:09:14 10° NNE
Intercosmos 25 Rocket 4.1 20:00:26 10° N 20:06:58 63° ENE 20:11:01 10° SSE
IGS 5A 4.3 20:04:31 12° SE 20:07:51 34° ENE 20:11:38 10° N
Cosmos 1500 Rocket 3.6 20:05:11 10° N 20:09:36 88° W 20:13:57 10° S
Cosmos 2221 3.6 20:05:41 10° SSW 20:09:50 49° WNW 20:14:03 10° N
S3M 4.2 20:04:21 10° SSE 20:10:32 55° E 20:16:43 10° NNE
BREEZE-M R/B 1.6 20:08:31 10° WSW 20:11:25 78° SSE 20:13:50 10° ENE
USA 186 3.7 20:10:13 10° SSW 20:12:20 21° W 20:14:21 10° NW
FALCON 9 DEB 3.2 20:15:11 10° WNW 20:18:09 52° SW 20:20:03 19° SSE
Cosmos 1933 3.7 20:17:12 10° SSE 20:21:01 44° E 20:24:52 10° NNE
USA 245 4.4 20:23:48 12° ENE 20:23:48 12° ENE 20:24:44 10° NE
FALCON 9 DEB 3.6 20:21:29 10° WNW 20:24:22 41° SW 20:26:04 20° SSE
Cosmos 1242 Rocket 3.0 20:24:03 16° SSE 20:26:32 39° E 20:29:54 10° NNE
OBJECT-B 2.8 20:24:06 10° SSW 20:26:55 27° W 20:29:46 10° NW
Cosmos 1553 Rocket 4.2 20:23:04 10° SSW 20:29:10 75° W 20:35:24 10° N
Cosmos 1437 Rocket 2.9 20:26:38 10° SSW 20:30:28 74° WNW 20:34:23 10° N
BREEZE M DEB (TANK) 4.0 20:25:26 10° WNW 20:31:16 33° N 20:33:45 10° ENE
FALCON 9 DEB 3.4 20:30:18 10° WNW 20:33:14 46° SW 20:34:36 26° SSE
Resurs 01 Rocket 1.6 20:29:42 15° SSE 20:33:18 78° ENE 20:37:46 10° N
Spot 2 Rocket 4.3 20:34:12 20° ESE 20:37:03 35° ENE 20:41:36 10° N
DELTA 2 R/B (1) 3.8 20:32:59 10° W 20:38:25 54° S 20:41:51 22° ESE
Sich 1 2.9 20:35:34 10° N 20:39:54 81° E 20:43:00 19° SSE
Cosmos 2082 Rocket 4.3 20:39:47 10° N 20:42:46 14° NE 20:45:45 10° ENE
Meteor 1-20 Rocket 4.1 20:37:22 10° N 20:43:02 78° E 20:47:11 18° SSE
BREEZE-M DEB (TANK) 3.8 20:42:43 10° W 20:44:35 20° SSW 20:45:33 18° S
Cosmos 1782 3.2 20:43:16 26° SSE 20:45:06 44° E 20:48:55 10° NNE
CZ-4C R/B 3.8 20:38:42 10° NNW 20:45:17 39° NE 20:51:18 16° ESE
Cosmos 1500 4.4 20:43:20 10° NNE 20:46:28 24° ENE 20:47:10 23° E
ERS-1 Rocket 3.9 20:50:52 23° ESE 20:53:00 32° ENE 20:57:27 10° N
Cosmos 1503 Rocket 3.9 20:49:40 10° SSW 20:54:50 87° ESE 21:00:04 10° NNE
SPOT 5 3.9 20:52:52 24° ESE 20:55:00 33° ENE 20:59:38 10° N
Intercosmos 24 4.4 20:53:27 10° SSW 20:57:21 54° W 21:00:51 10° N
Cosmos 1151 Rocket 2.9 20:58:03 25° S 21:00:29 70° E 21:04:51 10° NNE
Cosmos 1777 Rocket 4.5 20:58:39 29° SE 21:00:30 38° ESE 21:05:18 10° NE
USA 290 2.3 20:58:55 10° NNW 21:02:09 70° WSW 21:02:58 45° S
Terra 3.0 21:02:22 23° E 21:03:49 27° ENE 21:07:50 10° N
Cosmos 1602 3.6 21:01:05 10° N 21:04:57 86° E 21:06:20 39° S
Cosmos 2278 Rocket 2.8 21:05:44 30° SE 21:06:59 34° ESE 21:12:01 10° NE
CZ-2C R/B 3.9 21:09:07 10° N 21:13:34 68° WNW 21:17:35 13° SSW
Cosmos 1515 Rocket 3.8 21:17:35 43° ESE 21:18:14 47° E 21:22:29 10° NNE
Cosmos 1844 Rocket 4.3 21:14:15 10° WSW 21:19:20 36° WNW 21:24:29 10° N
SPOT 1/Viking Rocket 3.7 21:16:47 28° S 21:19:32 74° WSW 21:24:46 10° NNW
Cosmos 2084 3.2 21:17:53 32° SSW 21:19:40 66° ESE 21:23:52 10° NE
SL-4 R/B 3.5 21:16:02 10° WNW 21:19:59 30° SW 21:21:08 27° SSW
X-37B 0.6 21:16:54 10° WNW 21:20:07 77° NNE 21:20:09 77° NNE
ARIANE 5 R/B 2.5 21:20:40 46° SSE 21:21:57 85° ENE 21:26:18 10° NNW
SWARM A 4.3 21:19:55 10° N 21:23:01 64° ENE 21:23:01 64° ENE
Cosmos 1437 3.1 21:25:46 50° N 21:25:46 50° N 21:28:00 10° N
JB-3 4.1 21:23:18 10° NNE 21:27:14 84° E 21:27:56 59° S
Cosmos 1633 Rocket 3.4 21:25:26 10° NNW 21:29:46 60° W 21:31:23 36° SSW
Cosmos 1812 2.6 21:31:31 70° ESE 21:31:37 70° E 21:35:28 10° NNE
Cosmos 1328 Rocket 4.1 21:36:50 27° SSW 21:39:01 56° W 21:43:23 10° N
Cosmos 1470 Rocket 3.5 21:34:33 10° N 21:39:03 85° W 21:39:56 58° S
Cosmos 2184 Rocket 4.1 21:33:20 10° N 21:39:29 57° ENE 21:41:19 42° SE
Meteor 1-5 Rocket 4.0 21:35:12 10° N 21:40:38 76° E 21:42:00 50° SSE
ATLAS 5 CENTAUR R/B 2.7 21:39:14 10° NW 21:44:55 58° WSW 21:47:13 38° S
CARTOSAT-1 3.9 21:44:08 47° SSW 21:45:02 59° W 21:49:19 10° NNW
Cosmos 2074 Rocket 4.0 21:41:12 10° N 21:47:29 69° E 21:49:23 46° SE
NOSS 3-3 (A) 4.2 21:44:53 10° SW 21:50:34 67° NW 21:57:05 10° NNE
NOSS 3-3 (C) 4.2 21:45:00 10° SW 21:50:41 67° NW 21:57:12 10° NNE
Cosmos 1666 2.9 21:48:56 10° N 21:52:11 63° NNE 21:52:11 63° NNE
Nadezhda 1 Rocket 4.2 21:51:52 45° SE 21:53:08 51° E 21:59:11 10° NNE
Cosmos 1933 Rocket 3.3 21:49:15 10° N 21:53:37 90° E 21:53:49 82° S
Cosmos 1833 Rocket 2.6 21:48:46 10° NNW 21:54:27 80° ENE 21:55:42 56° SE
ATLAS 2AS CENTAUR R/B 3.9 21:49:46 10° NNW 21:56:29 35° NE 22:00:31 20° E
BREEZE-M DEB (TANK) 4.2 21:57:15 10° NW 21:57:58 17° NNW 21:57:58 17° NNW
Cosmos 1538 Rocket 3.9 21:57:45 10° NNW 22:03:09 87° ENE 22:03:56 66° SSE
Iridium 4 Rocket 3.8 22:01:47 46° SSW 22:03:33 78° W 22:09:28 10° N
USA 305 4.0 21:59:54 10° NW 22:03:53 37° NNE 22:04:41 34° NE
Cosmos 1610 Rocket 4.5 22:03:26 10° N 22:09:32 64° E 22:10:38 55° SE
Resurs 01 Rocket 4.5 22:09:44 10° W 22:10:20 10° W 22:10:57 10° W
SJ 16-02 1.4 22:15:15 75° WNW 22:15:15 75° WNW 22:19:40 10° NNE
Cosmos 158 Rocket 3.8 22:10:31 10° NNW 22:15:24 67° ENE 22:15:27 67° ENE
Cosmos 2228 Rocket 3.1 22:17:34 74° NNE 22:17:34 74° NNE 22:21:38 10° N
Meteor 1-27 Rocket 3.7 22:18:37 66° SSE 22:19:19 75° E 22:25:13 10° NNE
Cosmos 1680 Rocket 4.2 22:15:57 10° N 22:21:01 42° ENE 22:21:27 42° ENE
USA 306 3.6 22:18:58 10° NW 22:23:05 47° NNE 22:23:05 47° NNE
COSMOS 2406 3.4 22:19:33 10° NNW 22:25:07 59° WSW 22:25:47 55° SW
Cosmos 2082 Rocket 2.1 22:22:13 10° NNW 22:27:52 76° ENE 22:28:19 71° ESE
ERS-1 Rocket 4.2 22:30:51 29° WSW 22:31:45 31° W 22:36:12 10° NNW
Milstar 3 4.4 22:22:44 10° WSW 22:29:42 27° SSW 22:29:42 27° SSW
SPOT 5 4.2 22:32:05 29° WSW 22:33:01 31° W 22:37:37 10° NNW
CZ-4C R/B 3.1 22:26:59 10° NW 22:34:21 64° WSW 22:36:28 49° S
Cosmos 1271 Rocket 4.0 22:35:28 39° WNW 22:35:28 39° WNW 22:38:59 10° N
Terra 2.9 22:41:15 34° WSW 22:41:26 34° W 22:45:46 10° NNW
Meteor 1-11 Rocket 4.0 22:38:34 10° NNW 22:44:27 60° W 22:45:14 55° SW
Cosmos 1295 Rocket 4.4 22:38:28 10° N 22:44:50 80° W 22:45:45 66° SSW
USA 307 3.8 22:44:15 10° NW 22:47:31 48° NNW 22:47:31 48° NNW
Cosmos 1340 Rocket 3.9 22:46:50 10° N 22:49:40 43° N 22:49:40 43° N
Cosmos 2278 Rocket 3.4 22:47:29 19° WSW 22:50:59 38° WNW 22:56:14 10° N
Spot 4 4.1 22:53:27 62° NE 22:53:27 62° NE 22:57:47 10° N
Cosmos 923 Rocket 4.1 22:50:58 10° NNW 22:55:53 71° WNW 22:55:53 71° WNW
Cosmos 1898 Rocket 3.6 22:57:39 70° NE 22:57:39 70° NE 23:02:25 10° NNE
Cosmos 1536 4.3 22:56:47 10° NNW 22:59:30 34° NW 22:59:30 34° NW
Cosmos 2369 Rocket 3.7 23:03:27 24° ENE 23:03:27 24° ENE 23:06:36 10° NE
USA 308 4.1 22:57:42 10° NW 23:00:30 39° NW 23:00:30 39° NW
Meteor 2-9 Rocket 4.4 23:04:53 10° N 23:10:35 63° ENE 23:10:35 63° ENE
Cosmos 1943 Rocket 2.5 23:11:54 56° ENE 23:11:54 56° ENE 23:16:35 10° NNE
SL-8 Rocket 3.9 23:04:51 10° N 23:11:13 80° E 23:11:34 76° ESE
ALOS 2 3.6 23:16:05 45° NNE 23:16:05 45° NNE 23:19:18 10° N
DNEPR-1 R/B 4.5 23:19:56 56° ENE 23:19:56 56° ENE 23:24:01 10° NE
Meteor 2-4 Rocket 4.3 23:20:31 46° ENE 23:20:31 46° ENE 23:25:24 10° NNE
Cosmos 44 3.7 23:15:44 10° NNW 23:20:48 66° NNE 23:20:48 66° NNE
Meteor 1-18 Rocket 4.2 23:33:04 80° N 23:33:04 80° N 23:38:23 10° N
NOSS 3-4 (A) 4.2 23:27:21 10° NW 23:34:12 49° WSW 23:34:27 49° SW
NOSS 3-4 (C) 4.2 23:27:27 10° NW 23:34:17 50° WSW 23:34:34 50° SW
Cosmos 1238 Rocket 4.0 23:30:35 10° NNW 23:36:39 61° W 23:36:39 61° W
SL-24 R/B - RUBIN 2 4.4 23:33:07 10° NW 23:37:29 57° NW 23:37:29 57° NW
SeaSat 1 3.5 23:35:03 10° NE 23:38:19 37° ENE 23:38:19 37° ENE
Cosmos 864 Rocket 4.3 23:33:46 10° N 23:39:56 80° W 23:39:57 80° W
Cosmos 1959 Rocket 4.4 23:36:35 10° NNW 23:42:48 74° W 23:42:51 74° W
USA 215 3.4 23:42:20 42° E 23:44:37 68° NE 23:51:06 10° NW
Cosmos 2297 4.2 23:45:50 51° WNW 23:46:19 52° WNW 23:51:53 10° NNE
ATLAS 2AS CENTAUR R/B 2.7 23:40:45 10° NW 23:47:56 65° WSW 23:47:56 65° WSW
Cosmos 2181 Rocket 4.3 23:52:11 51° W 23:52:37 53° WNW 23:58:38 10° N
